Flag for Poland Weather past 2 weeks in Toruń, Poland

Now
58 °F

Light rain. Overcast.


Feels Like: 58 °F
Forecast: 50 / 61 °F
Wind: No wind

Location: Torun

Current Time: Sep 30, 2014 at 7:24:20 PM

Latest Report: Sep 30, 2014 at 6:00 PM


Visibility: 1 mi

Pressure: 30.25 "Hg

Humidity: 92%

Dew point: 56 °F

Location of ToruńLocation

Historic Weather in Toruń — Graph

°F

Toruń temperature yesterday

Maximum temperature yesterday: 69 °F (at 3:00 PM)
Minimum temperature yesterday: 42 °F (at 6:00 AM)
Average temperature yesterday: 55 °F

Past Weeks' High & Low Weather Summary

 TemperatureHumidityPressure
High74 °F (Sep 20, 2:00 PM)98% (Sep 20, 8:00 AM)30.35 "Hg (Sep 20, 8:00 AM)
Low32 °F (Sep 24, 7:00 AM)34% (Sep 16, 4:00 PM)29.67 "Hg (Sep 22, 5:00 AM)
Average56 °F77%30.05 "Hg
* Reported Sep 15 6:00 PM — Sep 30 6:00 PM, Toruń, Weather by CustomWeather, © 2014

Note: Actual official high and low records may vary slightly from our data, if they occured in-between our weather recording intervals... More about our weather records

Advertising

Toruń weather history for previous 24 hours

 ConditionsComfort  
Time TempWeatherWind HumidityBarometerVisibility
6:00 PM
Sep 30
58 °FLight rain. Overcast.No wind92%30.25 "Hg1 mi
5:00 PM58 °FLight rain. Overcast.1 mph89%30.24 "Hg3 mi
4:00 PM60 °FLight rain. Overcast.1 mph84%30.24 "Hg4 mi
3:00 PM62 °FLight rain. Overcast.1 mph80%30.24 "Hg4 mi
2:00 PM61 °FOvercast.1 mph85%30.24 "Hg3 mi
1:00 PM60 °FLight rain. Overcast.No wind91%30.24 "Hg2 mi
12:00 PM59 °FFog.No wind91%30.24 "Hg2 mi
11:00 AM58 °FOvercast.No wind93%30.23 "Hg2 mi
10:00 AM57 °FLight rain. Overcast.1 mph96%30.22 "Hg2 mi
9:00 AM54 °FLight rain. Overcast.1 mph97%30.21 "Hg2 mi
8:00 AM52 °FOvercast.No wind97%30.22 "Hg2 mi
7:00 AM51 °FFog.No wind97%30.20 "Hg1 mi
6:00 AM50 °FFog.No wind97%30.21 "Hg2 mi
5:00 AM50 °FFog.No wind97%30.20 "Hg2 mi
4:00 AM49 °FFog.No wind97%30.19 "Hg2 mi
3:00 AM48 °FFog.No wind96%30.20 "Hg1 mi
2:00 AM48 °FFog.No wind96%30.20 "Hg1 mi
1:00 AM49 °FFog.1 mph95%30.20 "Hg2 mi
12:00 AM50 °FFog.No wind95%30.21 "Hg2 mi
11:00 PM
Sep 29
51 °FFog.No wind95%30.21 "Hg2 mi
10:00 PM52 °FFog.No wind94%30.20 "Hg2 mi
9:00 PM54 °FFog.No wind93%30.20 "Hg3 mi
8:00 PM56 °FFog.No wind90%30.20 "Hg3 mi
7:00 PM59 °FOvercast.No wind83%30.19 "Hg7 mi
Weather by CustomWeather, © 2014

See weather overviewHow to use our weather pages